Date String (YYYY-MM-DD hh:mm:ss) UTC,Instrument flags,absolute air pressure of the measurement (hPa),sample flow rate (lpm),inlet stack bypass flow (lpm),air temperature of the measurement (°C),ambient temperature measured by the external sensor (°C),aerosol sample conditioner tube jacket temperature (°C),OPC LED temperature (°C),internal box temperature (°C),relative humidity of the measurement (%),span deviation,mass concentration of particles derived from Lorenz-Mie calculation of OPC scattering (μg/m³),mass concentration of particles derived from Lorenz-Mie calculation of OPC scattering (μg/m³),mass concentration of particles derived from Lorenz-Mie calculation of OPC scattering (μg/m³)
DateTimeUTC,F1_M11,P_M11,Q1_M11,Q2_M11,T1_M11,T2_M11,T3_M11,T4_M11,T5_M11,U1_M11,ZSPAN_M11,X2_M11,X0_M11,X1_M11
2024-01-27 06:00:00,SystemResetWarning,0837.2,5.00,000.00,022.0,020.8,000.0,030.4,023.3,15.9,0000.0,0004.24,0007.24,0004.06
2024-01-27 06:01:00,SystemResetWarning,0837.2,5.00,000.00,022.0,020.7,000.0,030.4,023.3,15.9,0000.0,0004.22,0007.17,0004.05
2024-01-27 06:02:00,SystemResetWarning,0837.2,5.00,000.00,022.0,020.7,000.0,030.4,023.3,15.9,0000.0,0004.22,0006.56,0004.06
2024-01-27 06:03:00,SystemResetWarning,0837.2,5.00,000.00,022.0,020.7,000.0,030.4,023.3,15.9,0000.0,0004.21,0006.15,0004.06
2024-01-27 06:04:00,SystemResetWarning,0837.2,5.00,000.00,022.0,020.7,000.0,030.4,023.3,15.9,0000.0,0004.22,0007.20,0004.05
2024-01-27 06:05:00,SystemResetWarning,0837.2,5.00,000.00,022.0,020.7,000.0,030.4,023.3,15.9,0000.0,0004.21,0007.71,0004.05
2024-01-27 06:06:00,SystemResetWarning,0837.2,5.00,000.00,022.0,020.7,000.0,030.4,023.3,15.9,0000.0,0004.20,0007.68,0004.04
2024-01-27 06:07:00,SystemResetWarning,0837.2,5.01,000.00,022.0,020.7,000.0,030.3,023.3,16.0,0000.0,0004.20,0007.68,0004.03
2024-01-27 06:08:00,SystemResetWarning,0837.2,5.00,000.00,021.9,020.7,000.0,030.3,023.3,16.0,0000.0,0004.19,0007.66,0004.02
2024-01-27 06:09:00,SystemResetWarning,0837.2,5.00,000.00,021.9,020.7,000.0,030.3,023.2,15.9,0000.0,0004.18,0007.74,0004.01
2024-01-27 06:10:00,SystemResetWarning,0837.2,5.00,000.00,021.9,020.7,000.0,030.3,023.2,15.9,0000.0,0004.17,0007.93,0004.00
2024-01-27 06:11:00,SystemResetWarning,0837.3,5.00,000.00,021.9,020.6,000.0,030.3,023.2,15.8,0000.0,0004.15,0007.91,0004.00
2024-01-27 06:12:00,SystemResetWarning,0837.3,5.00,000.00,021.9,020.6,000.0,030.3,023.2,15.8,0000.0,0004.14,0007.90,0003.98
2024-01-27 06:13:00,SystemResetWarning,0837.2,5.00,000.00,021.9,020.6,000.0,030.3,023.2,15.8,0000.0,0004.12,0007.88,0003.97
2024-01-27 06:14:00,SystemResetWarning,0837.3,5.00,000.00,021.9,020.6,000.0,030.3,023.2,15.7,0000.0,0004.10,0007.78,0003.95
2024-01-27 06:15:00,SystemResetWarning,0837.3,5.00,000.00,021.9,020.6,000.0,030.3,023.2,15.7,0000.0,0004.08,0007.01,0003.93
2024-01-27 06:16:00,SystemResetWarning,0837.2,5.00,000.00,021.8,020.6,000.0,030.2,023.2,15.7,0000.0,0004.06,0006.25,0003.92
2024-01-27 06:17:00,SystemResetWarning,0837.2,5.00,000.00,021.8,020.6,000.0,030.2,023.2,15.6,0000.0,0004.05,0006.14,0003.92
2024-01-27 06:18:00,SystemResetWarning,0837.2,5.00,000.00,021.8,020.6,000.0,030.2,023.2,15.6,0000.0,0004.04,0006.12,0003.91
2024-01-27 06:19:00,SystemResetWarning,0837.2,5.00,000.00,021.8,020.5,000.0,030.2,023.1,15.7,0000.0,0004.02,0006.12,0003.90
2024-01-27 06:20:00,SystemResetWarning,0837.2,5.00,000.00,021.8,020.5,000.0,030.2,023.1,15.7,0000.0,0004.00,0005.88,0003.87
2024-01-27 06:21:00,SystemResetWarning,0837.2,5.00,000.00,021.8,020.5,000.0,030.2,023.1,15.6,0000.0,0003.98,0005.45,0003.85
2024-01-27 06:22:00,SystemResetWarning,0837.2,5.00,000.00,021.8,020.5,000.0,030.2,023.1,15.6,0000.0,0003.99,0005.48,0003.84
2024-01-27 06:23:00,SystemResetWarning,0837.2,5.00,000.00,021.8,020.5,000.0,030.2,023.1,15.6,0000.0,0003.97,0005.43,0003.83
2024-01-27 06:24:00,SystemResetWarning,0837.2,5.00,000.00,021.8,020.5,000.0,030.2,023.1,15.6,0000.0,0003.95,0005.38,0003.81
2024-01-27 06:25:00,SystemResetWarning,0837.2,5.00,000.00,021.8,020.5,000.0,030.2,023.1,15.6,0000.0,0003.96,0005.44,0003.81
2024-01-27 06:26:00,SystemResetWarning,0837.2,5.00,000.00,021.7,020.5,000.0,030.1,023.1,15.6,0000.0,0003.96,0005.37,0003.81
2024-01-27 06:27:00,SystemResetWarning,0837.2,5.00,000.00,021.7,020.4,000.0,030.1,023.1,15.6,0000.0,0003.99,0005.49,0003.81
2024-01-27 06:28:00,SystemResetWarning,0837.3,5.01,000.00,021.7,020.4,000.0,030.1,023.0,15.6,0000.0,0004.00,0005.64,0003.81
2024-01-27 06:29:00,SystemResetWarning,0837.2,5.00,000.00,021.7,020.4,000.0,030.1,023.0,15.6,0000.0,0004.00,0005.62,0003.81
2024-01-27 06:30:00,SystemResetWarning,0837.2,5.00,000.00,021.7,020.4,000.0,030.1,023.0,15.6,0000.0,0004.00,0005.59,0003.80
2024-01-27 06:31:00,SystemResetWarning,0837.2,5.00,000.00,021.7,020.4,000.0,030.1,023.0,15.6,0000.0,0004.01,0005.64,0003.81
2024-01-27 06:32:00,SystemResetWarning,0837.2,5.00,000.00,021.7,020.4,000.0,030.1,023.0,15.6,0000.0,0004.02,0005.68,0003.81
2024-01-27 06:33:00,SystemResetWarning,0837.2,5.00,000.00,021.7,020.4,000.0,030.1,023.0,15.6,0000.0,0004.01,0005.74,0003.81
2024-01-27 06:34:00,SystemResetWarning,0837.2,5.00,000.00,021.6,020.3,000.0,030.0,023.0,15.6,0000.0,0004.02,0005.88,0003.80
2024-01-27 06:35:00,SystemResetWarning,0837.2,4.99,000.00,021.6,020.3,000.0,030.0,023.0,15.5,0000.0,0004.02,0005.89,0003.80
2024-01-27 06:36:00,SystemResetWarning,0837.2,4.99,000.00,021.6,020.3,000.0,030.0,022.9,15.5,0000.0,0004.00,0005.81,0003.79
2024-01-27 06:37:00,SystemResetWarning,0837.2,5.00,000.00,021.6,020.3,000.0,030.0,022.9,15.5,0000.0,0003.99,0006.23,0003.77
2024-01-27 06:38:00,SystemResetWarning,0837.2,5.00,000.00,021.6,020.3,000.0,030.0,022.9,15.5,0000.0,0003.94,0006.04,0003.76
2024-01-27 06:39:00,SystemResetWarning,0837.2,5.00,000.00,021.6,020.3,000.0,030.0,022.9,15.5,0000.0,0003.91,0005.91,0003.74
2024-01-27 06:40:00,SystemResetWarning,0837.2,5.01,000.00,021.6,020.3,000.0,030.0,022.9,15.5,0000.0,0003.91,0005.91,0003.73
2024-01-27 06:41:00,SystemResetWarning,0837.2,5.01,000.00,021.6,020.3,000.0,030.0,022.9,15.5,0000.0,0003.91,0005.93,0003.73
2024-01-27 06:42:00,SystemResetWarning,0837.2,5.01,000.00,021.6,020.3,000.0,030.0,022.9,15.5,0000.0,0003.90,0005.89,0003.72
2024-01-27 06:43:00,SystemResetWarning,0837.2,5.00,000.00,021.5,020.2,000.0,029.9,022.9,15.5,0000.0,0003.89,0005.92,0003.70
2024-01-27 06:44:00,SystemResetWarning,0837.2,5.00,000.00,021.5,020.2,000.0,029.9,022.9,15.6,0000.0,0003.86,0005.76,0003.69
2024-01-27 06:45:00,SystemResetWarning,0837.2,5.00,000.00,021.5,020.2,000.0,029.9,022.8,15.6,0000.0,0003.83,0005.56,0003.68
2024-01-27 06:46:00,SystemResetWarning,0837.1,5.00,000.00,021.5,020.2,000.0,029.9,022.8,15.6,0000.0,0003.81,0005.52,0003.67
2024-01-27 06:47:00,SystemResetWarning,0837.1,4.99,000.00,021.5,020.2,000.0,029.9,022.8,15.6,0000.0,0003.80,0006.06,0003.66
2024-01-27 06:48:00,SystemResetWarning,0837.0,5.00,000.00,021.5,020.2,000.0,029.9,022.8,15.6,0000.0,0003.80,0005.94,0003.65
2024-01-27 06:49:00,SystemResetWarning,0837.0,5.00,000.00,021.5,020.2,000.0,029.9,022.8,15.6,0000.0,0003.80,0005.92,0003.65
2024-01-27 06:50:00,SystemResetWarning,0837.0,5.00,000.00,021.5,020.1,000.0,029.9,022.8,15.5,0000.0,0003.80,0005.93,0003.65
2024-01-27 06:51:00,SystemResetWarning,0837.0,5.00,000.00,021.4,020.1,000.0,029.8,022.8,15.5,0000.0,0003.80,0005.95,0003.64
2024-01-27 06:52:00,SystemResetWarning,0837.0,5.00,000.00,021.4,020.1,000.0,029.8,022.7,15.5,0000.0,0003.78,0005.93,0003.61
2024-01-27 06:53:00,SystemResetWarning,0837.0,5.00,000.00,021.4,020.1,000.0,029.8,022.7,15.5,0000.0,0003.75,0005.95,0003.60
2024-01-27 06:54:00,SystemResetWarning,0836.9,5.00,000.00,021.4,020.1,000.0,029.8,022.7,15.5,0000.0,0003.74,0006.03,0003.59
2024-01-27 06:55:00,SystemResetWarning,0836.9,5.00,000.00,021.4,020.1,000.0,029.8,022.7,15.5,0000.0,0003.77,0007.51,0003.60
2024-01-27 06:56:00,SystemResetWarning,0836.9,5.00,000.00,021.4,020.1,000.0,029.8,022.7,15.4,0000.0,0003.80,0007.92,0003.60
2024-01-27 06:57:00,SystemResetWarning,0836.9,5.00,000.00,021.4,020.1,000.0,029.8,022.7,15.4,0000.0,0003.82,0007.95,0003.60
2024-01-27 06:58:00,SystemResetWarning,0837.0,5.00,000.00,021.4,020.1,000.0,029.8,022.7,15.4,0000.0,0003.81,0007.69,0003.59
2024-01-27 06:59:00,SystemResetWarning,0837.0,5.00,000.00,021.4,020.1,000.0,029.8,022.7,15.5,0000.0,0003.81,0007.51,0003.58
